TimeCDT,TemperatureF,Dew PointF,Humidity,Sea Level PressureIn,VisibilityMPH,Wind Direction,Wind SpeedMPH,Gust SpeedMPH,PrecipitationIn,Events,Conditions,WindDirDegrees,DateUTC
12:53 AM,66.0,57.9,75,30.09,10.0,SSE,8.1,-,N/A,,Clear,150,2013-04-06 05:53:00
1:53 AM,66.0,57.9,75,30.07,10.0,SSE,9.2,-,N/A,,Clear,150,2013-04-06 06:53:00
2:53 AM,64.9,59.0,81,30.03,10.0,SSE,6.9,-,N/A,,Partly Cloudy,150,2013-04-06 07:53:00
3:40 AM,64.4,57.2,77,30.03,10.0,SSE,3.5,-,N/A,,Mostly Cloudy,150,2013-04-06 08:40:00
3:53 AM,64.9,57.9,78,30.02,10.0,SE,5.8,-,N/A,,Mostly Cloudy,130,2013-04-06 08:53:00
4:04 AM,64.4,57.2,77,30.02,10.0,SSE,5.8,-,N/A,,Scattered Clouds,160,2013-04-06 09:04:00
4:53 AM,64.0,57.9,80,30.01,10.0,SSE,4.6,-,N/A,,Mostly Cloudy,160,2013-04-06 09:53:00
5:02 AM,62.6,57.2,82,30.01,10.0,SSE,4.6,-,N/A,,Scattered Clouds,150,2013-04-06 10:02:00
5:53 AM,66.0,59.0,78,30.02,10.0,SE,6.9,-,N/A,,Clear,140,2013-04-06 10:53:00
6:53 AM,64.9,59.0,81,30.03,10.0,SE,8.1,-,N/A,,Clear,140,2013-04-06 11:53:00
7:53 AM,68.0,60.1,76,30.02,10.0,SE,13.8,-,N/A,,Clear,140,2013-04-06 12:53:00
8:53 AM,71.1,60.1,68,29.99,10.0,SE,21.9,27.6,N/A,,Clear,140,2013-04-06 13:53:00
9:53 AM,72.0,59.0,64,30.04,10.0,SSE,13.8,-,N/A,,Clear,150,2013-04-06 14:53:00
10:53 AM,73.9,57.9,57,30.01,7.0,SSE,18.4,32.2,N/A,,Clear,160,2013-04-06 15:53:00
11:53 AM,75.0,57.9,55,29.98,5.0,SSE,27.6,38.0,N/A,,Haze,160,2013-04-06 16:53:00
12:53 PM,77.0,57.9,52,30.02,8.0,SSE,16.1,28.8,N/A,,Mostly Cloudy,160,2013-04-06 17:53:00
1:53 PM,79.0,59.0,50,29.98,7.0,SSE,21.9,27.6,N/A,,Overcast,150,2013-04-06 18:53:00
2:53 PM,81.0,59.0,47,29.96,8.0,SSE,17.3,29.9,N/A,,Overcast,160,2013-04-06 19:53:00
3:53 PM,79.0,57.9,48,29.93,8.0,SSE,16.1,27.6,N/A,,Overcast,160,2013-04-06 20:53:00
4:53 PM,79.0,59.0,50,29.91,9.0,SSE,20.7,28.8,N/A,,Overcast,150,2013-04-06 21:53:00
5:53 PM,78.1,59.0,52,29.90,10.0,SSE,21.9,27.6,N/A,,Scattered Clouds,160,2013-04-06 22:53:00
6:53 PM,75.9,59.0,56,29.90,10.0,SSE,20.7,27.6,N/A,,Clear,150,2013-04-06 23:53:00
7:53 PM,73.0,60.1,64,29.90,10.0,SSE,17.3,-,N/A,,Clear,150,2013-04-07 00:53:00
8:53 PM,71.1,61.0,70,29.92,8.0,SE,10.4,-,N/A,,Clear,140,2013-04-07 01:53:00
9:53 PM,71.1,62.1,73,29.93,10.0,SSE,13.8,-,N/A,,Clear,150,2013-04-07 02:53:00
10:53 PM,71.1,61.0,70,29.94,10.0,SSE,13.8,-,N/A,,Clear,150,2013-04-07 03:53:00
11:53 PM,71.1,61.0,70,29.95,10.0,SSE,11.5,-,N/A,,Clear,160,2013-04-07 04:53:00